Location: Passau
(48.5830°N, 13.4830°E)
Time: 20:42:04
(UTC+02:00)

S-56A Canister/Altair - Pass Details

Date: 22 May 2024
Orbit: 637 x 2489 km, 38.9° (Epoch: 15 June)

Event Time Altitude Azimuth Distance (km) Brightness Sun altitude
Rises 11:19:27 0° 267° (W) 4,914 11.4 55.1°
Reaches altitude 10° 11:23:29 10° 260° (W) 3,599 10.9 55.6°
Maximum altitude 11:30:57 33° 201° (SSW) 1,761 10.1 56.4°
Drops below altitude 10° 11:36:18 10° 138° (SE) 2,535 10.9 57.0°
Sets 11:38:40 0° 128° (SE) 3,300 11.3 57.3°
